Vertical_Velocity
30 -14 30 -7 -0 1 4 7 3 3 2 2 -0 1 1 1 3 4 2 2 0 -1
-12 14 -3 18 -16 10 3 6 6 5 4 1 2 3 5 4 2 -0 2 2 2 4
-10 21 9 -16 23 5 10 2 1 3 5 1 4 2 -0 0 1 4 3 3 5 5
15 1 -17 19 -3 26 -1 6 2 0 5 6 3 3 -1 2 7 -2 -1 -0 2 1
-21 6 8 9 -1 25 16 27 24 1 3 9 -1 1 7 4 -1 1 3 -5 8 -0
15 -6 13 5 1 9 17 7 13 -8 9 15 10 -1 22 13 -1 2 -1 0 2 7
5 9 7 6 4 10 1 8 1 15 22 -3 11 8 11 6 4 2 -1 4 1 -4
-1 0 11 6 5 7 2 2 10 13 18 2 10 8 12 2 8 7 -4 -6 -0 5
12 13 15 18 9 12 13 1 3 7 13 9 18 2 7 1 2 12 -0 -10 -5 5
-2 -4 7 -0 3 20 4 -3 10 4 6 13 24 4 11 7 3 -4 -2 12 0 -0
1 3 2 3 6 3 -1 15 8 4 6 8 18 2 17 5 1 0 -5 9 2 -2
2 5 4 2 11 4 10 14 12 -1 1 6 11 9 11 9 4 4 3 3 1 1
1 7 -1 4 1 9 -1 1 -0 11 4 9 4 6 2 -4 -0 2 -2 2 -1 -1
3 2 -5 3 -2 0 7 9 5 2 4 3 4 5 -1 -6 1 -2 1 0 3 -1
Height
2981 2988 2990 2999 3007 3012 3018 3025 3030 3035 3039 3043 3048 3053 3058 3063 3067 3072 3076 3081 3085 3091
2973 2976 2981 2987 2996 3004 3010 3017 3023 3029 3034 3039 3044 3049 3054 3059 3064 3068 3072 3076 3080 3085
2961 2966 2974 2978 2983 2990 3000 3006 3014 3021 3027 3033 3039 3043 3048 3053 3058 3063 3067 3072 3076 3080
2950 2956 2964 2967 2974 2981 2988 2996 3003 3011 3018 3023 3029 3034 3040 3046 3050 3056 3060 3065 3070 3074
2940 2944 2951 2955 2964 2970 2976 2981 2990 2999 3008 3013 3019 3024 3031 3037 3043 3048 3052 3057 3060 3067
2925 2934 2939 2944 2952 2958 2964 2971 2976 2985 2994 2999 3007 3013 3018 3027 3033 3038 3042 3047 3051 3056
2917 2922 2927 2932 2940 2947 2954 2960 2967 2972 2977 2988 2997 3002 3009 3015 3021 3027 3032 3037 3042 3047
2913 2914 2917 2921 2926 2936 2943 2950 2955 2961 2968 2977 2985 2990 2995 3002 3009 3015 3022 3027 3032 3037
2912 2912 2913 2913 2918 2924 2930 2938 2945 2950 2957 2963 2971 2978 2986 2992 2998 3003 3011 3018 3024 3028
2911 2912 2910 2912 2917 2916 2920 2928 2934 2939 2945 2952 2958 2969 2975 2980 2987 2995 3000 3007 3013 3018
2910 2912 2913 2913 2914 2915 2921 2924 2927 2932 2936 2944 2948 2953 2961 2969 2977 2985 2992 2997 3004 3009
2909 2911 2911 2914 2913 2916 2919 2920 2921 2929 2935 2939 2942 2948 2953 2961 2969 2977 2984 2990 2995 3001
2908 2908 2910 2912 2912 2912 2915 2918 2922 2926 2931 2935 2938 2944 2948 2955 2962 2969 2975 2981 2986 2991
2907 2906 2909 2911 2913 2915 2917 2917 2920 2923 2928 2932 2936 2939 2944 2951 2957 2962 2968 2974 2979 2985